DateTimeUTC,F1_A11,F1_S11,BsB_S11,BsG_S11,BsR_S11,BbsB_S11,BbsG_S11,BbsR_S11,BaB_A11,BaG_A11,BaR_A11,Tu_S11,T_S11,Uu_S11,U_S11,P_S11,T1_A11
2021-07-17T03:00:00Z,00000200,20000000,,,,,,,0000.00,0000.54,0000.09,18.3,25.0,09.9,06.6,0675.8,31.0
2021-07-17T03:01:00Z,00000200,20000000,,,,,,,-000.18,-000.80,0000.13,18.3,25.0,09.8,06.5,0675.8,31.0
2021-07-17T03:02:00Z,00000200,20000000,,,,,,,0000.04,0000.43,-000.18,18.3,25.0,09.8,06.5,0675.8,31.0
2021-07-17T03:03:00Z,00000200,60000000,,,,,,,0000.07,-000.03,0000.16,18.3,25.0,09.8,06.5,0675.8,31.0
2021-07-17T03:04:00Z,00000200,40000000,0000.19,0000.38,0000.13,-000.14,-000.19,-000.22,0000.10,-000.09,-000.02,18.3,24.7,09.8,06.6,0676.8,31.0
2021-07-17T03:05:00Z,00000200,00000000,-000.53,0000.37,0000.16,0000.07,0000.12,-000.16,-000.07,0000.19,0000.10,18.4,24.7,09.9,06.7,0676.8,31.0
2021-07-17T03:06:00Z,00000200,00000000,0000.83,0000.29,-000.16,0000.45,-000.07,-000.05,0000.06,0000.14,0000.15,18.4,24.7,09.9,06.7,0676.8,31.0
2021-07-17T03:07:00Z,00000200,00000000,0000.66,0000.01,0000.23,0000.30,-000.02,0000.10,0000.48,0000.11,-000.02,18.5,24.7,09.9,06.8,0676.8,31.0
2021-07-17T03:08:00Z,00000200,00000000,0000.36,0000.16,0000.21,0000.32,0000.37,0000.04,-000.24,0000.11,0000.14,18.6,24.8,09.8,06.7,0676.8,31.0
2021-07-17T03:09:00Z,00000200,00000000,0000.43,0000.21,0000.22,0000.12,-000.32,-000.09,0000.13,0000.26,-000.18,18.6,24.8,09.7,06.7,0676.8,31.0
2021-07-17T03:10:00Z,00000200,00000000,0000.19,0000.17,0000.40,-000.08,0000.12,0000.15,-000.25,-000.32,-000.07,18.7,24.8,09.8,06.7,0676.8,31.0
2021-07-17T03:11:00Z,00000200,00000000,0000.10,0000.35,0000.31,0000.51,0000.20,-000.01,0000.00,0000.09,0000.15,18.6,24.8,09.8,06.7,0676.8,31.0
2021-07-17T03:12:00Z,00000200,00000000,-000.21,0000.27,0000.51,-000.41,0000.10,-000.12,0000.06,-000.39,-000.26,18.6,24.8,09.7,06.7,0676.8,31.0
2021-07-17T03:13:00Z,00000200,00000000,0000.30,0000.15,0000.06,0000.69,0000.05,0000.14,-000.07,0000.21,-000.15,18.6,24.8,09.8,06.7,0676.8,31.0
2021-07-17T03:14:00Z,00000200,00000000,0000.14,0000.21,0000.16,0000.63,0000.02,-000.02,-000.28,-000.37,0000.10,18.6,24.8,09.7,06.6,0676.8,31.0
2021-07-17T03:15:00Z,00000200,00000000,0000.37,0000.56,0000.33,0000.37,0000.13,-000.15,0000.11,0000.18,0000.15,18.5,24.8,09.6,06.6,0676.8,31.0
2021-07-17T03:16:00Z,00000200,00000000,0000.66,0000.22,0000.13,0000.74,-000.28,-000.04,0000.05,-000.01,-000.29,18.5,24.7,09.7,06.6,0676.8,31.0
2021-07-17T03:17:00Z,00000200,00000000,-000.05,0000.08,0000.45,0000.62,0000.11,0000.08,0000.13,0000.00,0000.48,18.5,24.7,09.8,06.7,0676.8,31.0
2021-07-17T03:18:00Z,00000200,00000000,0000.57,0000.26,0000.48,0000.01,0000.12,-000.09,0000.15,0000.04,-000.38,18.5,24.7,09.7,06.6,0676.8,31.0
2021-07-17T03:19:00Z,00000200,00000000,0000.65,0000.73,0000.27,0000.08,0000.01,0000.27,-000.33,0000.05,0000.18,18.5,24.7,09.6,06.6,0676.7,31.0
2021-07-17T03:20:00Z,00000200,00000000,0000.28,0000.38,0000.39,-000.13,-000.11,0000.01,0000.23,0000.12,0000.03,18.5,24.7,09.6,06.5,0676.7,31.0
2021-07-17T03:21:00Z,00000200,00000000,0000.13,0000.13,0000.56,0000.03,-000.26,-000.00,0000.08,0000.08,0000.23,18.5,24.7,09.5,06.5,0676.7,31.0
2021-07-17T03:22:00Z,00000200,00000000,-000.24,0000.36,0000.34,0000.31,0000.06,0000.17,0000.00,-000.22,-000.35,18.6,24.7,09.5,06.5,0676.7,31.0
2021-07-17T03:23:00Z,00000200,00000000,-000.31,0000.21,0000.14,0000.56,0000.07,-000.17,0000.03,-000.18,0000.23,18.6,24.8,09.4,06.5,0676.7,31.0
2021-07-17T03:24:00Z,00000200,00000000,-000.15,0000.09,0000.27,0000.02,-000.10,-000.19,-000.24,0000.15,-000.25,18.6,24.8,09.3,06.4,0676.7,31.0
2021-07-17T03:25:00Z,00000200,00000000,0000.14,-000.03,0000.38,0000.03,-000.05,0000.01,0000.13,-000.04,0000.19,18.6,24.8,09.4,06.5,0676.7,31.0
2021-07-17T03:26:00Z,00000200,00000000,0000.81,0000.26,0000.16,0000.29,0000.24,0000.04,0000.02,0000.07,-000.21,18.6,24.8,09.3,06.4,0676.7,31.0
2021-07-17T03:27:00Z,00000200,00000000,0001.09,0000.12,0000.22,-000.18,0000.22,-000.01,-000.24,-000.11,-000.19,18.6,24.8,09.3,06.4,0676.7,31.0
2021-07-17T03:28:00Z,00000200,00000000,0000.21,0000.58,0000.28,0000.42,0000.16,-000.07,-000.07,0000.06,0000.31,18.6,24.7,09.3,06.4,0676.7,31.0
2021-07-17T03:29:00Z,00000200,00000000,-000.25,0000.54,0000.14,-000.30,0000.22,-000.07,0000.07,-000.18,-000.10,18.6,24.7,09.2,06.3,0676.7,31.0
2021-07-17T03:30:00Z,00000200,00000000,0000.28,0000.14,0000.36,0000.42,0000.04,0000.06,0000.09,0000.21,-000.19,18.5,24.7,09.2,06.3,0676.7,31.0
2021-07-17T03:31:00Z,00000200,00000000,0000.59,0000.68,0000.07,0000.13,-000.11,0000.34,0000.15,0000.33,0000.23,18.5,24.7,09.2,06.3,0676.7,31.0
2021-07-17T03:32:00Z,00000200,00000000,0000.14,0000.17,0000.16,0000.22,0000.18,-000.03,-000.26,-000.65,-000.15,18.5,24.7,09.2,06.3,0676.6,31.0
2021-07-17T03:33:00Z,00000200,00000000,0000.26,0000.47,0000.19,0000.31,-000.04,0000.25,0000.09,0000.49,0000.21,18.5,24.7,09.2,06.3,0676.6,31.0
2021-07-17T03:34:00Z,00000200,00000000,0000.71,-000.04,0000.49,-000.31,-000.02,-000.08,-000.07,0000.01,-000.07,18.4,24.6,09.1,06.3,0676.6,31.0
2021-07-17T03:35:00Z,00000200,00000000,0000.75,0000.33,0000.08,0000.19,0000.19,-000.19,0000.10,-000.04,0000.30,18.4,24.6,09.2,06.3,0676.6,31.0
2021-07-17T03:36:00Z,00000200,00000000,0000.50,0000.26,0000.42,0000.14,0000.00,0000.08,0000.25,-000.30,-000.45,18.5,24.7,09.1,06.3,0676.6,31.0
2021-07-17T03:37:00Z,00000200,00000000,-000.28,0000.23,0000.26,0000.08,-000.14,0000.15,-000.14,-000.11,0000.06,18.5,24.7,09.0,06.2,0676.6,31.0
2021-07-17T03:38:00Z,00000200,00000000,0000.72,0000.25,-000.13,0000.18,0000.06,-000.35,-000.13,0000.21,-000.06,18.6,24.7,09.0,06.2,0676.6,31.0
2021-07-17T03:39:00Z,00000200,00000000,0000.21,0000.48,0000.03,0000.61,0000.01,0000.07,0000.13,-000.12,-000.02,18.6,24.7,09.1,06.2,0676.6,31.0
2021-07-17T03:40:00Z,00000200,00000000,0000.05,0000.38,0000.16,-000.34,0000.18,0000.00,-000.08,-000.09,-000.04,18.6,24.7,09.0,06.1,0676.6,31.0
2021-07-17T03:41:00Z,00000200,00000000,-000.09,0000.42,0000.13,-000.48,-000.01,-000.22,0000.06,0000.04,0000.14,18.5,24.7,08.9,06.1,0676.6,31.0
2021-07-17T03:42:00Z,00000200,00000000,0000.55,0000.16,0000.40,0000.81,0000.20,0000.32,-000.18,0000.07,-000.01,18.5,24.7,08.8,06.0,0676.7,31.0
2021-07-17T03:43:00Z,00000200,00000000,0000.91,0000.44,0000.23,-000.31,0000.09,0000.28,0000.13,-000.05,-000.31,18.5,24.7,08.8,06.0,0676.6,31.0
2021-07-17T03:44:00Z,00000200,00000000,0000.18,0000.06,0000.09,0000.21,-000.24,-000.25,-000.02,0000.01,-000.09,18.5,24.7,08.8,06.0,0676.6,31.0
2021-07-17T03:45:00Z,00000200,00000000,0000.47,0000.16,0000.34,0001.12,-000.15,0000.13,-000.15,-000.10,0000.19,18.4,24.7,08.8,06.0,0676.6,31.0
2021-07-17T03:46:00Z,00000200,00000000,0000.01,-000.12,0000.04,0000.01,-000.21,-000.16,-000.24,-000.17,0000.04,18.4,24.6,08.7,05.9,0676.6,31.0
2021-07-17T03:47:00Z,00000200,00000000,0000.49,0000.31,0000.38,-000.28,0000.03,-000.01,0000.07,0000.04,0000.02,18.4,24.6,08.7,05.9,0676.6,31.0
2021-07-17T03:48:00Z,00000200,00000000,-000.05,0000.53,0000.17,0000.07,-000.13,0000.04,0000.32,-000.05,-000.08,18.4,24.6,08.6,05.9,0676.6,31.0
2021-07-17T03:49:00Z,00000200,00000000,0000.16,0000.01,0000.26,0000.29,0000.03,0000.03,-000.39,0000.06,-000.21,18.3,24.6,08.5,05.8,0676.6,31.0
2021-07-17T03:50:00Z,00000200,00000000,0000.77,0000.58,0000.17,0000.01,0000.02,-000.01,0000.14,0000.34,0000.20,18.3,24.6,08.4,05.8,0676.6,31.0
2021-07-17T03:51:00Z,00000200,00000000,0000.44,-000.00,0000.19,0000.25,-000.02,0000.15,0000.11,-000.47,0000.28,18.4,24.6,08.3,05.7,0676.6,31.0
2021-07-17T03:52:00Z,00000200,00000000,0000.09,0000.27,0000.64,-000.15,0000.03,-000.02,-000.14,0000.22,-000.47,18.5,24.7,08.3,05.6,0676.6,31.0
2021-07-17T03:53:00Z,00000200,00000000,0000.29,0000.30,0000.39,0000.28,-000.07,0000.14,0000.05,-000.08,0000.33,18.5,24.7,08.2,05.6,0676.6,31.0
2021-07-17T03:54:00Z,00000200,00000000,-000.38,0000.32,-000.09,0000.31,-000.03,0000.10,0000.05,0000.01,-000.51,18.5,24.7,08.2,05.6,0676.6,31.0
2021-07-17T03:55:00Z,00000200,00000000,0001.07,0000.36,0000.26,0000.01,-000.09,-000.30,-000.07,-000.26,0000.14,18.5,24.7,08.1,05.6,0676.6,31.0
2021-07-17T03:56:00Z,00000200,00000000,0000.60,0000.54,0000.40,0000.07,-000.13,0000.02,-000.15,-000.09,0000.22,18.5,24.7,08.1,05.5,0676.6,31.0
2021-07-17T03:57:00Z,00000200,40000000,,,,,,,0000.19,0000.45,0000.05,18.5,24.7,08.3,05.7,0676.7,31.0
2021-07-17T03:58:00Z,00000200,60000000,,,,,,,-000.13,-000.16,-000.16,18.3,24.8,08.2,05.5,0675.6,31.0
2021-07-17T03:59:00Z,00000200,20000000,,,,,,,-000.10,-000.28,-000.23,18.2,24.9,08.2,05.5,0675.6,31.0
